Probability
0 0 0 0 0 0 0 0 0 0 0 0 0 0 1 1 1 0 0 0 0 0 0 0 0 0 0 0 0 0 0 0 0 0 0 0 0 0
0 0 0 0 0 0 0 0 0 0 0 0 0 0 0 0 0 0 0 0 0 0 0 0 0 0 0 0 0 0 0 0 0 0 0 0 0 0
0 0 0 0 0 0 0 0 0 0 0 0 0 0 0 0 0 0 0 0 0 0 0 0 0 0 0 0 0 0 0 0 0 0 0 0 0 0
0 0 0 0 0 0 0 0 0 0 0 0 0 0 0 0 0 0 0 0 0 0 0 0 0 0 0 0 0 0 0 0 0 0 0 0 0 0
0 0 0 0 0 0 0 0 0 0 0 0 0 0 0 0 0 0 0 0 0 0 0 0 0 0 0 0 0 0 0 0 0 0 0 0 0 0
0 0 0 0 0 0 0 0 0 0 0 0 0 0 0 0 0 0 0 0 0 0 0 0 0 0 0 0 0 0 0 0 0 0 0 0 0 0
0 0 0 0 0 0 0 0 0 0 0 0 0 0 0 0 0 0 0 0 0 0 0 0 0 0 0 0 0 0 0 0 0 0 0 0 0 0
0 0 0 0 0 0 0 0 0 0 0 0 0 0 0 0 0 0 0 0 0 0 0 0 0 0 0 0 0 0 0 0 0 0 0 0 0 0
0 0 0 0 0 0 0 0 0 0 0 0 0 0 0 0 0 0 0 0 0 0 0 0 0 0 0 0 0 0 0 0 0 0 0 0 0 0
0 0 0 0 0 0 0 0 0 0 0 0 0 0 0 0 0 0 0 0 0 0 0 0 0 0 0 0 0 0 0 0 0 0 0 0 0 0
0 0 0 0 0 0 0 0 0 0 0 0 0 0 0 0 0 0 0 0 0 0 0 0 0 0 0 0 0 0 0 0 0 0 0 0 0 0
1 0 0 0 0 0 0 0 0 0 0 0 0 0 0 0 0 0 0 0 0 0 0 0 0 0 0 0 0 0 0 0 0 0 0 0 0 0
1 0 0 0 0 0 0 0 0 0 0 0 0 0 0 0 0 0 0 0 0 0 0 0 0 0 0 0 0 0 0 0 0 0 0 0 0 0
1 0 0 0 0 0 0 0 0 0 0 0 0 0 0 0 0 0 0 0 0 0 0 0 0 0 0 0 0 0 0 0 0 0 0 0 0 0
1 0 0 0 0 0 0 0 0 0 0 0 0 0 0 0 0 0 0 0 0 0 0 0 0 0 0 0 0 0 0 0 0 0 0 0 0 0
1 0 0 0 0 0 0 0 0 0 0 0 0 0 0 0 0 0 0 0 0 0 0 0 0 0 0 0 0 0 0 0 0 0 0 0 0 0
0 0 0 0 0 0 0 0 0 0 0 0 0 0 0 0 0 0 0 0 0 0 0 0 0 0 0 0 0 0 0 0 0 0 0 0 0 0
0 0 0 0 0 0 0 0 0 0 0 0 0 0 0 0 0 0 0 0 0 0 0 0 0 0 0 0 0 0 0 0 0 0 0 0 0 0
0 0 0 0 0 0 0 0 0 0 0 0 0 0 0 0 0 0 0 0 0 0 0 0 0 0 0 0 0 0 0 0 0 0 0 0 0 0
0 0 0 0 0 0 0 0 0 0 0 0 0 0 0 0 0 0 0 0 0 0 0 0 0 0 0 0 0 0 0 0 0 0 0 0 0 0
0 0 0 0 0 0 0 0 0 0 0 0 0 0 0 0 0 0 0 0 0 0 0 0 0 0 0 0 0 0 0 0 0 0 0 0 0 0
0 0 0 0 0 0 0 0 0 0 0 0 0 0 0 0 0 0 0 0 0 0 0 0 0 0 0 0 0 0 0 0 0 0 0 0 0 0
0 0 0 0 0 0 0 0 0 0 0 0 0 0 0 0 0 0 0 0 0 0 0 0 0 0 0 0 0 0 0 0 0 0 0 0 0 0
Wind_Speed
7 7 6 5 5 5 5 5 5 5 5 4 4 4 3 3 2 3 3 4 5 6 6 5 4 4 4 4 4 4 4 4 4 5 5 6 8 9
6 7 6 5 5 5 5 5 6 6 5 3 3 3 3 2 3 4 4 4 5 6 6 5 5 5 5 5 5 5 5 5 5 6 6 6 7 7
7 8 8 7 6 5 5 5 6 5 6 4 3 4 5 4 3 3 4 4 4 6 7 6 6 6 6 5 5 5 5 5 6 7 7 7 7 7
9 9 9 7 8 7 6 7 6 6 6 6 5 4 6 5 4 4 3 3 4 4 7 7 6 6 6 6 6 5 5 5 5 6 6 6 7 7
9 10 9 9 10 8 8 7 6 6 6 6 5 4 4 4 4 4 4 4 4 4 6 8 7 7 7 6 6 6 5 5 5 5 5 6 7 7
9 10 10 10 11 10 8 8 7 7 7 6 5 5 4 4 4 4 4 4 4 4 5 6 7 8 8 8 7 7 6 6 6 6 6 6 6 7
9 10 10 11 12 10 8 8 8 7 7 6 6 5 5 5 5 4 5 4 4 4 4 5 5 5 6 8 8 8 8 7 7 7 7 7 7 7
10 10 10 11 12 13 13 13 11 10 9 8 7 8 8 7 5 5 5 5 4 3 4 5 5 6 5 5 7 8 8 8 8 7 7 8 8 8
10 10 8 8 11 10 11 13 13 14 13 10 10 10 9 8 7 7 7 6 5 3 4 5 5 6 5 5 8 9 9 9 8 8 8 9 9 9
11 11 10 10 10 10 10 10 11 11 11 10 10 9 8 7 7 7 7 5 4 3 4 5 4 5 4 5 8 9 9 9 9 9 9 9 9 10
10 10 11 11 12 12 11 10 10 9 9 10 10 9 9 9 8 5 5 5 4 4 3 4 3 3 4 5 5 8 9 9 9 9 10 10 9 9
8 9 12 12 12 13 11 10 11 9 8 7 8 8 8 9 10 9 7 6 4 4 4 4 3 2 3 3 3 4 6 9 10 10 10 10 9 6
7 7 7 10 13 14 13 10 10 8 7 8 7 6 6 6 6 7 6 6 6 4 3 3 3 3 3 2 3 4 4 4 5 7 8 9 9 8
7 6 6 9 10 12 10 10 10 8 6 6 6 6 6 5 5 6 6 5 5 5 5 5 3 4 3 4 4 3 4 4 4 5 4 6 8 9
6 7 7 7 7 7 9 10 8 6 6 6 7 6 5 5 4 4 4 4 3 3 4 5 5 4 4 4 4 3 4 4 4 4 4 4 5 5
4 4 5 5 5 5 5 6 6 5 6 6 5 4 4 4 5 4 4 4 3 3 3 4 5 5 5 5 5 5 4 4 4 4 4 4 5 5
4 3 3 3 3 3 3 4 4 4 5 4 4 4 4 4 4 4 4 4 4 4 3 2 3 3 5 5 5 5 5 4 4 4 4 5 5 5
4 3 3 3 3 3 3 3 3 4 4 4 4 4 4 4 4 3 4 4 4 4 4 3 2 2 2 4 6 6 5 4 4 4 4 5 6 5
3 3 3 3 3 3 3 3 3 3 3 4 4 4 4 4 4 4 4 4 4 4 3 3 3 3 4 5 4 5 5 4 4 4 4 5 6 6
2 2 2 2 2 2 2 2 2 2 2 3 3 4 4 4 4 4 4 4 4 3 3 3 4 4 5 4 3 3 5 5 4 4 4 4 5 6
2 1 1 1 1 2 2 2 2 2 3 3 3 3 3 4 4 4 4 5 4 4 5 5 4 4 2 2 3 3 3 4 5 4 4 4 4 5
2 2 2 1 1 1 1 1 2 2 3 3 3 3 3 3 4 4 4 4 4 4 4 3 2 2 3 4 5 4 4 3 2 4 5 6 5 5
2 2 2 2 2 1 1 1 2 2 2 2 2 2 3 3 3 3 4 4 4 4 3 3 3 3 3 4 4 4 4 3 2 3 3 4 6 8
Wind_Direction
228 227 231 233 230 234 230 227 229 232 225 217 213 214 222 225 219 218 224 198 202 206 215 220 219 216 220 230 240 252 248 244 246 244 252 260 255 255
232 225 230 234 230 229 229 235 237 242 240 221 223 214 212 227 222 222 225 208 206 210 213 215 217 215 216 224 234 242 247 243 243 243 249 258 257 263
232 228 230 232 230 225 227 231 234 237 237 235 231 223 220 220 220 230 232 227 219 210 210 213 219 222 221 224 231 238 242 246 244 245 249 258 256 258
231 229 230 229 228 227 224 228 228 232 232 229 225 222 226 222 223 228 239 235 230 214 217 217 220 227 224 224 230 234 238 242 245 245 250 258 257 255
231 229 227 226 228 225 225 229 229 230 228 220 224 225 227 218 224 234 239 244 238 233 226 223 222 225 225 227 232 235 238 239 241 243 249 257 264 259
236 232 229 227 228 224 224 225 227 227 220 215 216 217 221 219 221 226 234 240 240 237 235 230 229 227 229 230 230 233 237 241 243 247 247 254 263 267
239 235 233 231 232 227 223 221 221 224 216 213 215 218 216 208 217 223 232 238 240 228 234 230 228 228 227 230 228 228 231 236 239 243 247 252 259 262
239 237 234 230 230 228 229 226 224 223 217 214 219 219 222 221 220 218 224 230 237 217 233 236 225 229 230 230 229 227 229 231 233 240 248 253 256 259
240 236 233 230 227 225 226 228 230 231 228 223 221 224 222 217 216 220 224 230 240 225 232 240 225 232 233 234 224 225 229 230 234 242 247 252 255 257
243 237 235 233 226 224 225 227 230 230 228 228 229 230 229 221 218 225 226 237 249 230 230 243 235 241 241 235 220 222 231 237 239 244 248 249 252 256
248 240 235 234 227 224 226 227 230 231 230 228 233 233 228 224 216 213 214 220 238 231 219 237 242 256 250 238 226 223 231 236 240 243 247 249 252 254
250 241 235 234 227 221 222 221 225 227 220 215 219 221 222 219 216 217 215 219 227 231 206 216 227 232 253 238 233 234 233 236 239 243 246 248 249 249
253 247 238 230 227 225 226 226 227 225 217 209 211 211 211 211 216 220 221 223 220 227 201 205 226 227 237 256 250 243 238 244 243 244 239 242 243 248
257 255 250 234 226 223 225 227 221 217 213 204 203 205 205 208 210 212 216 228 233 228 208 212 228 225 236 256 260 255 249 247 248 249 245 243 244 251
262 264 258 238 225 221 218 214 212 212 210 207 207 209 209 205 199 200 208 216 231 233 222 227 231 235 237 245 258 261 263 257 244 243 247 247 248 250
268 259 252 233 229 224 215 214 218 214 212 211 206 202 198 198 199 198 203 200 216 239 241 240 233 231 242 245 245 253 250 244 243 248 253 257 256 251
264 254 232 218 218 222 220 215 213 205 206 205 201 197 200 202 201 198 199 203 218 223 229 237 244 251 255 248 245 245 250 252 244 242 249 257 255 250
248 230 226 226 225 219 214 215 213 209 205 200 202 202 203 203 203 201 201 208 217 220 225 222 216 242 259 261 237 241 245 253 257 251 248 256 264 261
235 230 226 227 224 220 218 217 221 217 204 201 204 204 202 203 202 202 204 208 215 220 224 215 214 220 240 256 249 219 236 250 254 256 250 257 264 269
265 247 235 231 227 224 220 220 214 205 202 204 201 201 200 199 201 206 209 214 215 219 226 224 222 224 234 250 260 260 238 241 243 254 266 277 281 283
317 298 275 257 243 238 228 218 214 211 206 204 205 206 205 202 204 206 211 214 221 222 225 230 235 238 254 247 252 258 259 255 252 252 258 268 281 281
332 321 313 303 276 249 238 225 216 214 208 204 205 205 205 205 207 210 213 217 223 227 235 241 226 221 228 232 244 258 272 292 293 278 269 258 257 256
333 328 326 323 307 277 247 231 231 228 221 211 210 209 205 207 212 214 217 219 220 222 229 228 228 231 236 233 242 253 261 273 284 294 297 297 288 284